KAZEOSAT 1

Last updated on Fri Dec 19 2025 00:02:33 GMT+0000 (Coordinated Universal Time)

1 39731U 14024A 25352.61853972 .00000052 00000+0 28750-4 0 9994 2 39731 98.3434 64.3943 0001152 97.5250 262.6070 14.42065513612533
UTC large
Height (km)
Speed (km/s)
/
Latitude / Longitude
Inclination (degrees)
Orbital Period (minutes)
Azimuth
Elevation
Range (km)
Doppler Factor

Next 0 passes for location: London (51.5072 / 0.1276)

Sorry there are no passes over London.